| time (UTC) | temp F | wind direction | speed knots | gust knots | rain 1hr in | rain 24hr in | rain mn in | humidity % | barometer mb |
| 20260508193101 | 53 | 56 | 3.5 | 8.7 | 0.00 | 0.76 | 0.00 | 71 | 1001.3 |
| 20260508191600 | 54 | 31 | 3.5 | 10.4 | 0.00 | 0.76 | 0.00 | 68 | 1001.3 |
| 20260508190058 | 55 | 18 | 6.1 | 10.4 | 0.00 | 0.76 | 0.00 | 68 | 1001.2 |
| 20260508184608 | 54 | 356 | 4.3 | 12.2 | 0.00 | 0.94 | 0.00 | 68 | 1001.2 |
| 20260508183104 | 54 | 46 | 3.5 | 10.4 | 0.00 | 0.94 | 0.00 | 69 | 1000.9 |
| 20260508181552 | 53 | 51 | 2.6 | 9.6 | 0.00 | 0.94 | 0.00 | 67 | 1001.2 |
| 20260508180053 | 53 | 87 | 4.3 | 10.4 | 0.00 | 0.94 | 0.00 | 68 | 1001.4 |
| 20260508174603 | 54 | 19 | 4.3 | 10.4 | 0.00 | 0.94 | 0.00 | 74 | 1001.3 |
| 20260508173055 | 53 | 65 | 4.3 | 9.6 | 0.00 | 0.94 | 0.00 | 71 | 1001.2 |
| 20260508171600 | 53 | 54 | 3.5 | 9.6 | 0.00 | 0.94 | 0.00 | 73 | 1001.6 |
| 20260508170058 | 52 | 112 | 5.2 | 10.4 | 0.00 | 0.94 | 0.00 | 75 | 1001.7 |
| 20260508164558 | 52 | 130 | 2.6 | 8.7 | 0.00 | 0.94 | 0.00 | 76 | 1001.6 |
| 20260508163114 | 52 | 33 | 3.5 | 7.8 | 0.00 | 0.94 | 0.00 | 75 | 1001.6 |
| 20260508161557 | 51 | 107 | 3.5 | 8.7 | 0.00 | 0.94 | 0.00 | 76 | 1001.5 |
| 20260508160054 | 52 | 22 | 4.3 | 9.6 | 0.00 | 0.94 | 0.00 | 74 | 1001.8 |
| 20260508154554 | 52 | 65 | 3.5 | 7.8 | 0.00 | 0.94 | 0.00 | 76 | 1001.7 |
| 20260508153057 | 54 | 14 | 3.5 | 7.8 | 0.00 | 0.94 | 0.00 | 73 | 1001.7 |
| 20260508151553 | 54 | 95 | 4.3 | 11.3 | 0.00 | 0.94 | 0.00 | 75 | 1001.7 |
| 20260508150050 | 53 | 7 | 3.5 | 11.3 | 0.00 | 0.94 | 0.00 | 76 | 1001.8 |
| 20260508144555 | 54 | 351 | 3.5 | 10.4 | 0.00 | 0.94 | 0.00 | 75 | 1001.9 |
| 20260508143054 | 52 | 359 | 5.2 | 9.6 | 0.00 | 0.94 | 0.00 | 79 | 1001.9 |
| 20260508141601 | 51 | 54 | 3.5 | 7.8 | 0.00 | 0.94 | 0.00 | 83 | 1002.1 |
| 20260508140055 | 51 | 81 | 2.6 | 7.0 | 0.00 | 0.94 | 0.00 | 84 | 1002.3 |
| 20260508134552 | 49 | 136 | 3.5 | 8.7 | 0.00 | 0.94 | 0.00 | 85 | 1002.4 |
| 20260508133055 | 50 | 105 | 1.7 | 8.7 | 0.00 | 0.94 | 0.00 | 87 | 1002.6 |
| 20260508131556 | 51 | 113 | 3.5 | 9.6 | 0.00 | 0.94 | 0.00 | 88 | 1002.4 |
| 20260508130108 | 50 | 52 | 1.7 | 5.2 | 0.00 | 0.94 | 0.00 | 91 | 1002.0 |
| 20260508124556 | 48 | 92 | 2.6 | 6.1 | 0.00 | 0.95 | 0.00 | 95 | 1002.0 |
| 20260508123055 | 47 | 155 | 2.6 | 7.0 | 0.00 | 0.95 | 0.00 | 96 | 1002.1 |
| 20260508121551 | 46 | 123 | 0.9 | 3.5 | 0.00 | 0.95 | 0.00 | 98 | 1002.0 |
| 20260508120054 | 45 | 137 | 2.6 | 5.2 | 0.00 | 0.95 | 0.00 | 98 | 1002.4 |
| 20260508114553 | 45 | 145 | 0.9 | 4.3 | 0.00 | 0.96 | 0.00 | 98 | 1002.7 |
| 20260508113055 | 45 | 0 | 0.9 | 6.1 | 0.00 | 0.96 | 0.00 | 99 | 1002.5 |
| 20260508111552 | 44 | 50 | 1.7 | 6.1 | 0.00 | 0.96 | 0.00 | 99 | 1002.4 |
| 20260508110109 | 43 | 353 | 1.7 | 6.1 | 0.00 | 0.96 | 0.00 | 100 | 1002.6 |
| 20260508104602 | 42 | 349 | 1.7 | 4.3 | 0.00 | 0.98 | 0.00 | 99 | 1002.7 |
| 20260508103057 | 41 | 17 | 0.0 | 2.6 | 0.00 | 0.98 | 0.00 | 99 | 1003.0 |
| 20260508101556 | 41 | 0 | 0.0 | 0.0 | 0.00 | 0.98 | 0.00 | 99 | 1002.7 |
| 20260508100052 | 41 | 0 | 0.0 | 3.5 | 0.00 | 0.98 | 0.00 | 99 | 1002.7 |
| 20260508094556 | 41 | 0 | 0.0 | 2.6 | 0.00 | 0.99 | 0.00 | 99 | 1002.4 |
| 20260508093101 | 41 | 14 | 1.7 | 3.5 | 0.00 | 0.99 | 0.00 | 99 | 1002.3 |
| 20260508091552 | 41 | 0 | 1.7 | 4.3 | 0.00 | 0.99 | 0.00 | 99 | 1002.3 |
| 20260508090108 | 41 | 27 | 1.7 | 4.3 | 0.00 | 0.99 | 0.00 | 99 | 1002.3 |
| 20260508084553 | 40 | 14 | 1.7 | 5.2 | 0.00 | 1.00 | 0.00 | 99 | 1002.3 |
| 20260508083055 | 40 | 39 | 3.5 | 8.7 | 0.00 | 1.00 | 0.00 | 99 | 1002.1 |
| 20260508081559 | 41 | 23 | 1.7 | 4.3 | 0.00 | 1.00 | 0.00 | 99 | 1001.6 |
| 20260508080054 | 41 | 102 | 1.7 | 6.1 | 0.00 | 1.00 | 0.00 | 98 | 1001.7 |
| 20260508074555 | 42 | 48 | 2.6 | 7.0 | 0.00 | 1.02 | 0.00 | 98 | 1001.8 |
| 20260508073053 | 43 | 41 | 3.5 | 7.0 | 0.00 | 1.02 | 0.00 | 98 | 1001.8 |
| 20260508071555 | 44 | 30 | 1.7 | 6.1 | 0.00 | 1.02 | 0.00 | 99 | 1001.8 |
| 20260508070055 | 45 | 25 | 0.9 | 4.3 | 0.00 | 1.02 | 0.00 | 99 | 1001.8 |
| 20260508064556 | 45 | 46 | 0.9 | 2.6 | 0.00 | 1.02 | 0.00 | 99 | 1001.6 |
| 20260508063055 | 45 | 27 | 2.6 | 5.2 | 0.00 | 1.02 | 0.00 | 99 | 1001.7 |
| 20260508061556 | 46 | 15 | 0.9 | 3.5 | 0.00 | 1.02 | 0.00 | 99 | 1002.0 |
| 20260508060054 | 46 | 345 | 1.7 | 5.2 | 0.00 | 1.02 | 0.00 | 99 | 1001.7 |
| 20260508054632 | 46 | 354 | 0.9 | 2.6 | 0.00 | 1.02 | 0.00 | 99 | 1001.7 |
| 20260508053055 | 46 | 0 | 0.9 | 3.5 | 0.00 | 1.02 | 0.00 | 99 | 1001.7 |
| 20260508051553 | 47 | 16 | 1.7 | 3.5 | 0.00 | 1.02 | 0.00 | 99 | 1001.5 |
| 20260508050054 | 47 | 39 | 0.9 | 2.6 | 0.00 | 1.02 | 0.00 | 99 | 1001.5 |
| 20260508044600 | 47 | 0 | 0.0 | 1.7 | 0.00 | 1.02 | 0.00 | 100 | 1001.6 |
| 20260508043053 | 47 | 0 | 0.0 | 0.0 | 0.00 | 1.02 | 0.00 | 99 | 1001.6 |
| 20260508041600 | 47 | 0 | 0.0 | 0.0 | 0.00 | 1.02 | 0.00 | 99 | 1001.7 |
| 20260508040058 | 46 | 0 | 0.0 | 1.7 | 0.00 | 1.02 | 0.00 | 99 | 1001.7 |
| 20260508034602 | 46 | 235 | 0.0 | 1.7 | 0.00 | 1.02 | 0.00 | 99 | 1002.1 |
| 20260508033052 | 46 | 0 | 0.9 | 2.6 | 0.00 | 1.02 | 0.00 | 99 | 1002.1 |
| 20260508031603 | 47 | 0 | 0.0 | 3.5 | 0.00 | 1.02 | 0.00 | 99 | 1002.2 |
| 20260508030111 | 47 | 0 | 0.0 | 2.6 | 0.00 | 1.02 | 0.00 | 99 | 1002.3 |
| 20260508024555 | 47 | 0 | 0.0 | 3.5 | 0.00 | 1.02 | 1.02 | 99 | 1002.2 |
| 20260508023055 | 48 | 212 | 0.9 | 4.3 | 0.00 | 1.02 | 1.02 | 99 | 1002.2 |
| 20260508021613 | 48 | 235 | 2.6 | 5.2 | 0.00 | 1.02 | 1.02 | 99 | 1001.9 |
| 20260508020053 | 48 | 264 | 1.7 | 5.2 | 0.00 | 1.02 | 1.02 | 99 | 1002.1 |
| 20260508014551 | 48 | 253 | 1.7 | 5.2 | 0.00 | 1.02 | 1.02 | 99 | 1002.1 |
| 20260508013106 | 48 | 249 | 0.9 | 5.2 | 0.00 | 1.02 | 1.02 | 99 | 1001.9 |
| 20260508011557 | 48 | 215 | 1.7 | 7.0 | 0.00 | 1.02 | 1.02 | 98 | 1001.9 |
| 20260508010055 | 49 | 283 | 1.7 | 8.7 | 0.00 | 1.02 | 1.02 | 98 | 1002.3 |
| 20260508004559 | 49 | 236 | 1.7 | 7.8 | 0.00 | 1.02 | 1.02 | 98 | 1002.2 |
| 20260508003105 | 49 | 229 | 1.7 | 8.7 | 0.00 | 1.02 | 1.02 | 99 | 1002.3 |
| 20260508001553 | 50 | 264 | 1.7 | 6.1 | 0.00 | 1.02 | 1.02 | 99 | 1002.3 |
| 20260508000054 | 49 | 245 | 1.7 | 5.2 | 0.00 | 1.02 | 1.02 | 99 | 1002.5 |
| 20260507234554 | 49 | 229 | 1.7 | 6.1 | 0.00 | 1.02 | 1.02 | 98 | 1002.6 |
| 20260507233053 | 50 | 183 | 2.6 | 7.0 | 0.00 | 1.02 | 1.02 | 98 | 1002.5 |
| 20260507231557 | 50 | 187 | 1.7 | 6.1 | 0.00 | 1.02 | 1.02 | 98 | 1002.4 |
| 20260507230050 | 50 | 207 | 1.7 | 6.1 | 0.00 | 1.02 | 1.02 | 98 | 1002.5 |
| 20260507224604 | 50 | 166 | 2.6 | 7.8 | 0.00 | 1.02 | 1.02 | 98 | 1002.6 |
| 20260507223056 | 50 | 196 | 1.7 | 9.6 | 0.01 | 1.02 | 1.02 | 98 | 1002.5 |
| 20260507221551 | 50 | 166 | 4.3 | 11.3 | 0.04 | 1.02 | 1.02 | 98 | 1003.0 |
| 20260507220055 | 50 | 187 | 4.3 | 11.3 | 0.09 | 1.02 | 1.02 | 98 | 1002.8 |
| 20260507214555 | 51 | 228 | 3.5 | 10.4 | 0.16 | 1.02 | 1.02 | 98 | 1002.8 |
| 20260507213055 | 50 | 156 | 3.5 | 10.4 | 0.23 | 1.01 | 1.01 | 98 | 1002.9 |
| 20260507211557 | 49 | 183 | 1.7 | 8.7 | 0.29 | 0.98 | 0.98 | 98 | 1002.7 |
| 20260507210119 | 49 | 184 | 3.5 | 9.6 | 0.32 | 0.93 | 0.93 | 98 | 1002.2 |
| 20260507204557 | 49 | 164 | 3.5 | 11.3 | 0.34 | 0.86 | 0.86 | 98 | 1002.6 |
| 20260507203107 | 49 | 157 | 3.5 | 7.8 | 0.35 | 0.78 | 0.78 | 98 | 1003.5 |
| 20260507201602 | 49 | 192 | 3.5 | 10.4 | 0.35 | 0.69 | 0.69 | 98 | 1003.8 |
| 20260507200104 | 49 | 187 | 4.3 | 13.9 | 0.33 | 0.60 | 0.60 | 97 | 1004.1 |
| 20260507194552 | 49 | 173 | 7.0 | 17.4 | 0.31 | 0.51 | 0.51 | 97 | 1004.7 |